Regional Weather Roundup
Issued by NWS

Home | Current Version | Previous Version | Text Only | Print | Product List | Glossary On
Versions: 1 2 3 4 5 6 7 8 9 10 11 12 13 14 15 16 17 18 19 20 21 22 23 24 25 26 27 28 29 30 31 32 33 34 35 36 37 38 39 40 41 42 43 44 45 46 47 48 49 50
000
ASUS45 KTFX 260510
RWRMT
MONTANA REGIONAL WEATHER ROUNDUP
NATIONAL WEATHER SERVICE GREAT FALLS MT
1100 PM MDT SUN JUN 25 2017

NOTE: "FAIR" INDICATES FEW OR NO CLOUDS BELOW 12000 FEET WITH NO
SIGNIFICANT WEATHER AND/OR OBSTRUCTIONS TO VISIBILITY.

MTZ001>007-043-260600-
WEST OF THE DIVIDE

CITY           SKY/WX    TMP DP  RH WIND       PRES   REMARKS
KALISPELL      PTCLDY    60  52  74 CALM      30.04S
MISSOULA       CLEAR     66  47  50 CALM      30.06R
BUTTE          CLEAR     66  39  37 SW3       30.25R
MULLAN PASS    CLEAR     69  36  29 SE8       30.22F
ANACONDA         N/A     61  43  51 SW6       30.21S
DEER LODGE       N/A     63  41  45 W8        30.20S
EUREKA           N/A     75  43  31 CALM      29.99F
HAMILTON         N/A     64  50  59 CALM      30.09R
$$

MTZ008-052>055-260600-
SOUTHWEST MONTANA

CITY           SKY/WX    TMP DP  RH WIND       PRES   REMARKS
BOZEMAN        CLEAR     62  44  51 SE5       30.19S
DILLON         CLEAR     58  43  57 W3        30.20R
W YELLOWSTONE  CLEAR     50  39  66 CALM      30.34S
ENNIS          CLEAR     54  41  62 CALM      30.29R
THREE FORKS      N/A     58  47  66 CALM      30.16S
$$

MTZ009-010-012-014-046-048-049-054-260600-
EAST SLOPES AND CENTRAL MONTANA

CITY           SKY/WX    TMP DP  RH WIND       PRES   REMARKS
CUT BANK       PTCLDY    63  41  44 SE10      30.14S
GREAT FALLS    CLEAR     65  42  43 E13       30.15S
MALMSTROM AFB  CLEAR     60  43  53 SE9       30.15S
HELENA         CLEAR     69  42  37 W8        30.14S
CHOTEAU          N/A     64  39  39 S6        30.17F
$$

MTZ011-013-016-021-045-047-050-051-260600-
NORTH CENTRAL MONTANA

CITY           SKY/WX    TMP DP  RH WIND       PRES   REMARKS
HAVRE          CLEAR     61  42  49 E6        30.13F
LEWISTOWN      CLEAR     56  41  57 SE6       30.21F
N BAR RANCH      N/A     57  34  41 SW7       30.28S HAZE
CHINOOK          N/A     64  43  45 E8        30.15S
FORT BENTON      N/A     64  41  42 MISG      30.15S
$$

MTZ017>020-022>027-061-062-260600-
NORTHEAST MONTANA

CITY           SKY/WX    TMP DP  RH WIND       PRES   REMARKS
GLASGOW        CLEAR     61  36  39 E12       30.18F
JORDAN           N/A     58  32  37 CALM      30.19R
SIDNEY         CLEAR     56  42  59 N3        30.22S
WOLF POINT     CLEAR     57  38  48 NE7       30.20S
MALTA          CLEAR     61  39  44 NE9       30.17F
PLENTYWOOD       N/A     54  41  62 CALM      30.24R
POPLAR           N/A     59  43  55 E6        30.21S
$$

MTZ028>42-056>058-260600-
SOUTHCENTRAL AND SOUTHEAST MONTANA

CITY           SKY/WX    TMP DP  RH WIND       PRES   REMARKS
BAKER          CLEAR     51  33  50 SE7       30.24R
BILLINGS       CLEAR     68  31  25 E8        30.20F
LIVINGSTON     CLEAR     63  40  42 SE8       30.22R
MILES CITY     CLEAR     67  30  25 E6        30.19S
BIG TIMBER     CLEAR     64  37  36 NE6       30.25
FORSYTH          N/A     63  36  36 CALM      30.19S
ROUNDUP          N/A     66  29  25 E1        30.11S
$$

REGIONAL REPORTS...DAKOTAS

CITY           SKY/WX    TMP DP  RH WIND       PRES   REMARKS
WILLISTON      CLEAR     57  43  59 E3        30.23S
MINOT          CLEAR     50  39  66 CALM      30.24S
DICKINSON      CLEAR     50  39  66 E7        30.23R
BEACH            N/A     50  39  66 E7        30.26S
CROSBY           N/A     48  46  93 E3        30.26R
TIOGA            N/A     48  48 100 MISG      30.26S
WATFORD CITY     N/A     50  43  76 E8        30.23S
BISMARCK       CLEAR     53  46  77 NE5       30.25S
GRAND FORKS    CLEAR     47  42  83 W5        30.20S
FARGO          CLEAR     50  39  66 NW5       30.20S
BUFFALO SD       N/A     57  40  52 E13       30.19S
RAPID CITY     CLEAR     59  38  45 E9        30.24R
$$

REGIONAL REPORTS...WYOMING/IDAHO/WASHINGTON

CITY           SKY/WX    TMP DP  RH WIND       PRES   REMARKS
GILLETTE       CLEAR     44  35  70 SW5       30.27S
SHERIDAN       CLEAR     52  43  71 S6        30.25F
BUFFALO WY     CLEAR     54  39  57 W8        30.32S
CODY           CLEAR     61  38  42 SW6       30.29F
YELLOWSTONE LA   N/A     48  36  63 CALM      30.44S
IDAHO FALLS    CLEAR     61  49  64 CALM      30.18S
SALMON         CLEAR     63  45  51 CALM      30.07S
BOISE          CLEAR     77  43  29 SE8       29.96S
SPOKANE        PTCLDY    83  43  24 CALM      29.93S
$$

REGIONAL REPORTS...ALBERTA

CITY           SKY/WX    TMP DP  RH WIND       PRES   REMARKS
EDMONTON       CLEAR     66  50  55 SE14G21   29.98F
CALGARY        PTCLDY    64  48  55 S14       30.06F
LETHBRIDGE     CLEAR     59  54  82 SE9       30.06F
MEDICINE HAT   CLEAR     64  45  48 E13G18    30.10F
WATERTON GATE    N/A     55  45  67 SW5         N/A
CARDSTON         N/A     64  46  52 S8          N/A
MILK RIVER       N/A     61  45  55 S12         N/A
ONEFOUR          N/A     57  41  54 E13         N/A
$$

REGIONAL REPORTS...SASKATCHEWAN

CITY           SKY/WX    TMP DP  RH WIND       PRES   REMARKS
SWIFT CURRENT  CLEAR     50  41  71 SE8       30.21S
REGINA         CLEAR     54  37  54 NE7       30.25F
SASKATOON      PTCLDY    54  41  62 SE8       30.22S
CYPRESS HILLS    N/A     55  36  47 E8          N/A
ROCKGLEN         N/A     52  39  62 E3          N/A
ASSINIBOIA       N/A     63  48  59 SE12        N/A
$$



USA.gov is the U.S. government's official web portal to all federal, state and local government web resources and services.